Back to catalog

STARLINK-36368

AliveCommunicationsSSO
NORAD 67887·PAYLOAD·🇺🇸 United States

Launched Feb 21, 2026 from Vandenberg Space Force Base

Loading…

Next Passes (next 24 hours)

TLE

FreshSource: CelesTrak SupGP

Epoch: Sep 14, 2026, 14:59 UTC

1 67887C 26035J   26257.62479167 -.00008384  00000+0 -26024-3 0  2574
2 67887  97.2847 189.5680 0001830  89.6288 259.0242 15.33444262    14

Track STARLINK-36368 in real time with AllMySat

Download on the App Store